TimeCST,TemperatureF,Dew PointF,Humidity,Sea Level PressureIn,VisibilityMPH,Wind Direction,Wind SpeedMPH,Gust SpeedMPH,PrecipitationIn,Events,Conditions,WindDirDegrees,DateUTC
12:15 AM,33.8,21.2,60,30.15,10.0,NW,15.0,27.6,N/A,,Overcast,310,2013-03-06 06:15:00
12:54 AM,32.0,21.9,66,30.19,10.0,NW,18.4,25.3,N/A,,Overcast,310,2013-03-06 06:54:00
1:33 AM,32.0,21.2,64,30.19,10.0,NW,16.1,27.6,N/A,,Overcast,310,2013-03-06 07:33:00
1:54 AM,32.0,21.0,64,30.22,10.0,WNW,15.0,21.9,N/A,,Overcast,300,2013-03-06 07:54:00
2:54 AM,30.9,21.0,67,30.22,10.0,NW,13.8,29.9,N/A,,Overcast,310,2013-03-06 08:54:00
3:54 AM,30.9,21.0,67,30.25,10.0,WNW,18.4,24.2,N/A,,Overcast,300,2013-03-06 09:54:00
4:17 AM,30.2,21.2,69,30.24,10.0,NW,12.7,20.7,N/A,,Overcast,310,2013-03-06 10:17:00
4:54 AM,30.9,21.0,67,30.29,10.0,NW,16.1,21.9,N/A,,Overcast,310,2013-03-06 10:54:00
5:18 AM,30.2,21.2,69,30.27,10.0,NW,15.0,-,N/A,,Overcast,310,2013-03-06 11:18:00
5:54 AM,30.9,21.0,67,30.32,10.0,NW,13.8,20.7,N/A,,Overcast,320,2013-03-06 11:54:00
6:11 AM,30.2,21.2,69,30.29,10.0,NW,9.2,-,N/A,,Overcast,320,2013-03-06 12:11:00
6:54 AM,30.9,21.0,67,30.34,10.0,NW,16.1,-,N/A,,Overcast,310,2013-03-06 12:54:00
7:54 AM,30.9,19.9,64,30.37,10.0,NW,18.4,23.0,N/A,,Overcast,320,2013-03-06 13:54:00
8:54 AM,32.0,19.9,61,30.38,10.0,NNW,19.6,24.2,N/A,,Mostly Cloudy,330,2013-03-06 14:54:00
9:54 AM,35.1,21.9,59,30.39,10.0,NW,12.7,-,N/A,,Mostly Cloudy,320,2013-03-06 15:54:00
10:54 AM,34.0,21.0,59,30.40,10.0,NNW,15.0,-,N/A,,Overcast,340,2013-03-06 16:54:00
11:54 AM,35.1,21.9,59,30.39,10.0,NW,12.7,-,N/A,,Overcast,310,2013-03-06 17:54:00
11:56 AM,35.6,21.2,56,30.37,10.0,NW,10.4,-,N/A,,Mostly Cloudy,310,2013-03-06 17:56:00
12:54 PM,36.0,21.0,55,30.38,10.0,NW,9.2,-,N/A,,Overcast,310,2013-03-06 18:54:00
1:54 PM,37.0,21.9,54,30.37,10.0,NW,11.5,-,N/A,,Overcast,310,2013-03-06 19:54:00
2:54 PM,37.9,21.9,53,30.38,10.0,West,8.1,18.4,N/A,,Mostly Cloudy,280,2013-03-06 20:54:00
3:54 PM,37.0,21.0,52,30.37,10.0,Variable,6.9,-,N/A,,Scattered Clouds,0,2013-03-06 21:54:00
4:54 PM,37.0,21.0,52,30.37,10.0,WNW,9.2,-,N/A,,Scattered Clouds,290,2013-03-06 22:54:00
5:54 PM,34.0,19.9,56,30.37,10.0,WNW,8.1,-,N/A,,Clear,300,2013-03-06 23:54:00
6:54 PM,30.9,19.9,64,30.37,10.0,North,3.5,-,N/A,,Clear,350,2013-03-07 00:54:00
7:54 PM,26.1,19.9,78,30.37,10.0,Calm,Calm,-,N/A,,Clear,0,2013-03-07 01:54:00
8:54 PM,27.0,19.9,75,30.37,10.0,Calm,Calm,-,N/A,,Clear,0,2013-03-07 02:54:00
9:54 PM,25.0,19.0,78,30.38,10.0,Calm,Calm,-,N/A,,Clear,0,2013-03-07 03:54:00
10:54 PM,24.1,19.9,84,30.38,10.0,Calm,Calm,-,N/A,,Clear,0,2013-03-07 04:54:00
11:54 PM,24.1,19.9,84,30.38,10.0,Calm,Calm,-,N/A,,Clear,0,2013-03-07 05:54:00